CAPE
1845 1595 1445 1349 1122 844 681 754 788 783 866 972 969 924 886 747 823 670 624 564 485 537 590 563 572 511 412 295 227 143 84 70 58 15 13 27 54 75 82 83 56 35 3
235 1131 862 79 2 9 4 67 231 452 499 849 949 678 849 912 798 777 499 635 591 381 445 620 505 617 452 288 256 153 67 30 31 22 20 21 99 72 46 15 1 0 0
740 472 31 0 0 65 0 0 74 219 316 277 294 568 768 639 835 577 675 666 575 488 553 504 330 500 587 409 294 233 129 58 18 13 26 67 81 49 14 4 0 2 0
843 191 0 0 0 0 9 0 24 1 14 0 118 322 681 639 552 817 689 553 510 494 531 536 438 436 484 392 346 248 169 127 116 90 64 56 57 14 11 0 0 0 0
313 340 94 52 80 3 0 0 0 0 0 0 23 254 597 611 560 800 661 548 367 398 570 592 550 467 422 342 278 240 161 136 95 67 38 34 21 0 0 0 1 0 0
201 405 320 166 111 54 1 1 0 0 0 0 7 141 407 633 615 610 766 681 484 450 524 575 577 586 489 331 270 308 173 92 47 14 0 30 0 0 0 0 0 0 1
421 210 203 111 64 26 0 0 0 0 1 25 49 85 438 504 466 378 435 681 753 622 566 514 509 524 418 412 366 329 267 113 74 38 6 5 15 25 0 0 0 0 0
345 336 197 58 36 6 0 0 4 1 2 54 115 146 264 305 252 278 239 388 791 744 734 636 557 554 499 469 330 139 186 167 102 109 58 17 28 1 0 0 0 0 0
194 307 296 301 267 142 20 0 0 1 8 44 165 215 141 129 234 226 148 214 307 497 578 553 659 564 626 489 331 153 157 121 56 42 51 19 12 13 0 0 0 0 0
66 79 171 222 231 269 121 5 22 5 27 24 116 123 175 137 181 149 78 78 122 212 367 457 317 343 377 267 138 263 244 206 98 45 2 0 0 0 0 8 0 0 0
2 0 0 19 138 141 133 118 63 15 0 2 42 25 36 32 24 0 31 97 122 218 229 153 101 88 101 268 91 137 248 274 152 127 85 28 0 0 0 0 0 0 0
0 1 0 0 0 0 10 38 42 70 58 36 31 44 104 83 19 64 42 19 53 188 286 230 158 52 35 101 47 125 179 184 275 166 105 58 0 39 41 7 0 0 0
0 0 0 0 0 0 0 0 4 29 32 27 1 15 15 0 0 0 0 0 0 5 14 119 129 113 107 95 87 41 32 96 241 246 172 116 90 71 4 25 0 0 0
0 0 0 0 0 0 0 0 0 2 0 0 0 0 0 0 0 0 0 0 0 0 0 0 2 30 41 105 74 16 2 17 71 166 201 178 98 4 33 36 32 0 0
0 0 0 0 0 0 0 0 0 0 0 0 0 0 0 0 0 0 0 0 0 0 0 0 0 0 6 10 5 20 15 0 0 7 48 62 22 26 28 47 28 9 5
0 0 0 0 0 0 0 0 0 0 0 0 0 0 0 0 0 0 0 0 0 0 0 0 0 0 2 3 1 0 3 3 0 0 0 7 19 6 28 32 28 41 34
0 0 0 0 0 0 0 0 0 0 0 0 0 0 0 0 0 0 0 0 0 1 0 0 1 0 0 0 0 0 0 0 0 4 15 0 3 8 4 49 40 40 70
0 0 0 0 0 0 0 0 0 0 0 6 0 0 0 0 0 0 0 0 0 0 0 0 0 2 4 2 2 2 0 1 1 1 1 2 4 3 3 13 34 27 17
0 0 0 0 0 0 0 0 0 0 0 6 9 1 0 0 0 0 0 0 1 3 1 1 0 0 0 2 2 4 1 1 2 8 5 15 6 3 4 5 14 6 6
0 0 0 0 0 0 3 23 30 34 39 41 25 9 0 0 0 0 0 0 1 1 2 2 1 2 2 2 1 3 5 5 6 18 7 2 3 3 14 2 2 1 7
0 0 0 0 0 0 8 14 45 61 63 57 16 0 0 0 0 0 0 0 0 2 1 0 0 1 2 2 2 5 8 4 5 16 5 2 1 1 1 1 1 1 1
0 0 0 0 0 0 6 0 0 0 6 13 1 0 0 0 0 1 1 0 0 1 0 0 0 0 1 1 0 0 1 2 2 2 1 0 0 1 1 1 2 1 0
0 0 0 0 0 0 2 13 14 3 7 16 0 1 0 0 0 0 0 0 0 0 0 1 0 0 0 1 1 1 1 1 1 0 1 1 1 1 1 2 2 2 2
0 0 0 0 0 0 1 0 16 14 13 18 18 0 0 0 0 0 0 0 0 0 0 0 0 0 0 0 0 0 0 0 0 0 0 1 1 0 0 1 1 1 1
0 0 0 0 0 0 0 0 9 32 19 21 3 0 0 0 0 0 0 0 0 0 0 0 5 0 0 0 0 0 0 0 0 0 0 0 0 3 2 1 3 2 4
0 0 0 0 0 0 0 0 4 31 38 47 9 0 4 12 0 0 0 0 0 0 0 0 0 1 1 0 0 0 0 0 0 0 0 10 9 28 15 12 19 15 18
CIN
-4 -40 -63 -38 -49 -103 -100 -82 -83 -81 -46 -46 -61 -32 -35 -56 -40 -33 -34 -36 -69 -44 -35 -50 -68 -81 -99 -98 -73 -95 -122 -140 -102 -53 -32 -24 -20 -20 -23 -23 -24 -19 -8
-297 -28 -81 -509 -17 -325 -11 -206 -172 -117 -104 -61 -32 -42 -29 -35 -35 -28 -25 -67 -49 -93 -76 -20 -45 -31 -64 -97 -71 -73 -142 -183 -148 -136 -91 -41 -16 -20 -26 -28 -2 -0 -0
-180 -172 -346 -0 -0 -37 -0 -0 -198 -167 -132 -92 -99 -49 -23 -31 -35 -55 -23 -32 -58 -54 -43 -72 -94 -59 -39 -91 -120 -104 -89 -128 -171 -164 -126 -48 -33 -38 -43 -40 -3 -5 -0
-102 -240 -0 -0 -0 -45 -151 -0 -137 -51 -86 -0 -93 -61 -19 -29 -39 -41 -28 -36 -77 -93 -47 -74 -53 -61 -37 -39 -64 -84 -101 -76 -58 -73 -67 -48 -68 -110 -106 -0 -0 -0 -4
-174 -129 -221 -381 -264 -264 -0 -0 -0 -19 -0 -0 -118 -52 -38 -22 -28 -29 -30 -30 -76 -128 -68 -63 -71 -46 -35 -27 -42 -54 -60 -79 -69 -64 -65 -65 -79 -0 -0 -0 -0 -0 -2
-273 -220 -191 -189 -262 -272 -0 -0 -0 -0 -0 -0 -35 -47 -12 -8 -16 -19 -22 -26 -27 -69 -82 -78 -62 -48 -54 -28 -33 -35 -43 -58 -81 -66 -0 -81 -0 -0 -0 -0 -0 -0 -0
-133 -210 -239 -312 -270 -297 -0 -0 -0 -0 -0 -48 -68 -63 -20 -15 -20 -31 -29 -23 -28 -29 -36 -71 -50 -51 -84 -58 -32 -33 -38 -38 -43 -32 -16 -23 -92 -91 -0 -0 -0 -0 -0
-69 -103 -212 -318 -312 -462 -0 -0 -0 -1 -4 -27 -40 -38 -30 -26 -43 -44 -53 -39 -29 -29 -30 -35 -40 -40 -49 -54 -53 -49 -43 -47 -48 -50 -64 -89 -81 -5 -0 -0 -0 -0 -0
-188 -111 -114 -112 -137 -223 -334 -0 -0 -5 -22 -68 -39 -42 -38 -54 -36 -42 -63 -61 -56 -37 -49 -69 -34 -24 -23 -39 -34 -37 -53 -70 -110 -114 -117 -87 -30 -74 -0 -0 -0 -0 -11
-291 -266 -200 -167 -132 -92 -175 -273 -130 -68 -57 -77 -83 -60 -52 -63 -65 -67 -77 -74 -71 -57 -71 -71 -108 -90 -67 -61 -56 -40 -28 -51 -65 -104 -9 -0 -0 -0 -0 -114 -0 -0 -0
-119 -0 -0 -237 -164 -141 -95 -64 -77 -108 -0 -103 -88 -96 -80 -68 -58 -10 -86 -80 -76 -57 -53 -73 -150 -128 -126 -94 -92 -66 -56 -62 -46 -46 -72 -86 -0 -0 -0 -0 -0 -0 -0
-0 -86 -0 -0 -0 -0 -280 -158 -124 -89 -78 -93 -66 -63 -42 -37 -144 -101 -145 -179 -169 -69 -55 -93 -122 -165 -141 -149 -157 -120 -88 -89 -41 -36 -47 -72 -0 -116 -107 -77 -0 -0 -0
-0 -0 -0 -0 -0 -0 -0 -0 -119 -121 -125 -67 -35 -85 -84 -0 -0 -0 -0 -24 -25 -243 -200 -123 -126 -130 -147 -126 -134 -110 -168 -115 -58 -33 -30 -50 -98 -120 -12 -95 -0 -0 -0
-0 -0 -0 -0 -0 -0 -0 -0 -0 -166 -7 -0 -0 -0 -0 -0 -0 -0 -0 -0 -0 -0 -0 -0 -94 -145 -128 -35 -59 -113 -22 -152 -100 -42 -48 -56 -84 -22 -83 -91 -67 -0 -4
-0 -0 -0 -0 -0 -0 -0 -0 -0 -0 -0 -0 -0 -0 -0 -0 -0 -0 -0 -0 -0 -0 -0 -0 -0 -0 -74 -102 -112 -108 -150 -0 -0 -81 -82 -48 -76 -89 -93 -77 -62 -81 -37
-0 -0 -0 -0 -0 -0 -0 -0 -0 -0 -0 -0 -0 -0 -0 -0 -0 -0 -0 -0 -0 -0 -0 -0 -0 -0 -67 -207 -151 -0 -43 -42 -0 -0 -0 -47 -35 -39 -72 -64 -56 -37 -23
-0 -0 -0 -0 -0 -0 -0 -0 -0 -0 -0 -0 -0 -0 -0 -0 -0 -0 -0 -0 -0 -0 -0 -0 -0 -0 -0 -0 -0 -0 -0 -2 -2 -41 -36 -0 -0 -22 -41 -50 -36 -27 -21
-0 -0 -0 -0 -0 -0 -0 -0 -0 -0 -0 -25 -0 -0 -0 -0 -0 -0 -0 -0 -0 -0 -0 -0 -0 -0 -0 -0 -0 -0 -0 -0 -0 -0 -0 -0 -0 -0 -2 -22 -33 -30 -28
-0 -0 -0 -0 -0 -0 -0 -0 -0 -0 -0 -39 -46 -17 -0 -0 -0 -0 -0 -0 -0 -0 -0 -0 -0 -0 -0 -0 -0 -0 -0 -0 -0 -0 -0 -0 -1 -0 -0 -11 -37 -21 -99
-0 -0 -0 -0 -0 -0 -29 -29 -36 -55 -47 -37 -42 -52 -0 -0 -0 -0 -0 -0 -0 -0 -2 -1 -0 -0 -0 -0 -0 -0 -0 -0 -2 -173 -41 -13 -11 -16 -5 -41 -25 -0 -65
-0 -0 -0 -0 -0 -0 -35 -28 -30 -30 -26 -42 -57 -0 -0 -0 -0 -0 -0 -0 -2 -3 -3 -0 -0 -0 -0 -0 -0 -0 -0 -1 -9 -0 -3 -16 -4 -1 -0 -0 -0 -0 -0
-0 -0 -0 -0 -0 -0 -31 -0 -0 -0 -16 -31 -8 -0 -0 -0 -0 -0 -0 -0 -1 -0 -0 -0 -0 -0 -0 -0 -0 -0 -0 -0 -4 -15 -2 -5 -0 -0 -0 -0 -0 -0 -0
-0 -0 -0 -0 -0 -0 -32 -44 -35 -30 -35 -42 -0 -10 -0 -0 -0 -0 -0 -0 -0 -15 -0 -9 -0 -0 -0 -0 -0 -0 -0 -0 -0 -0 -0 -0 -0 -0 -0 -134 -0 -35 -0
-0 -0 -0 -0 -0 -0 -26 -0 -57 -47 -57 -70 -68 -0 -0 -0 -0 -0 -0 -0 -0 -0 -0 -0 -0 -0 -0 -0 -0 -0 -0 -0 -0 -0 -0 -0 -0 -0 -0 -0 -0 -0 -0
-0 -0 -0 -0 -0 -0 -0 -56 -54 -60 -51 -73 -54 -0 -0 -0 -0 -0 -0 -0 -0 -0 -0 -0 -76 -30 -0 -0 -0 -0 -0 -0 -0 -0 -1 -0 -1 -20 -10 -11 -44 -53 -56
-0 -0 -0 -0 -0 -0 -0 -0 -55 -53 -50 -54 -68 -0 -68 -87 -0 -0 -0 -0 -0 -0 -0 -0 -0 -20 -66 -0 -0 -0 -0 -0 -0 -0 -1 -10 -13 -10 -12 -14 -16 -20 -30
Wind_Speed
38 30 25 25 25 24 23 23 20 20 17 13 12 10 9 9 9 7 9 8 8 9 10 12 14 12 8 7 5 3 2 4 17 17 17 19 16 17 16 16 15 12 12
38 30 22 22 21 20 28 23 22 21 21 22 18 18 13 9 8 6 9 7 4 9 11 7 11 12 12 5 3 3 3 5 3 14 13 19 14 16 13 12 11 11 10
25 14 13 18 28 21 16 25 18 23 21 23 22 27 17 12 7 7 7 6 3 3 7 7 5 2 12 7 5 4 4 4 7 4 17 14 13 11 14 14 10 9 10
9 14 22 30 19 18 11 9 18 7 22 21 34 30 29 18 11 8 8 7 5 5 3 5 5 2 1 10 5 6 3 2 2 3 5 2 10 11 7 9 11 12 10
12 10 10 7 5 9 8 2 11 14 15 20 37 30 29 20 17 12 12 12 8 7 8 4 3 2 3 2 1 3 1 3 5 6 8 9 9 10 6 10 9 12 12
10 8 5 4 5 7 6 8 13 7 8 13 26 25 21 21 21 19 19 17 17 11 9 9 10 9 9 6 4 10 3 5 4 6 9 9 7 9 11 10 10 12 16
13 10 8 8 5 5 6 8 10 11 15 15 33 17 16 28 28 26 26 22 21 18 11 11 11 15 9 11 5 15 9 5 7 7 11 7 8 9 9 8 6 8 11
14 15 15 14 12 11 5 9 4 5 11 10 10 10 8 20 31 33 28 27 25 26 22 16 13 17 17 15 14 14 6 6 5 5 6 6 8 15 7 6 5 5 13
16 17 17 17 16 16 13 11 5 9 11 16 12 4 9 14 23 28 28 29 33 32 28 26 21 25 25 25 25 23 8 6 9 7 6 4 8 15 11 9 11 11 15
17 18 19 20 20 19 14 10 12 9 13 14 16 11 16 18 22 18 18 16 28 23 28 26 28 30 32 30 23 25 26 18 15 15 16 17 15 15 9 9 10 12 15
19 19 19 19 19 19 17 15 13 15 18 18 21 20 19 12 20 24 20 19 27 32 28 26 30 32 32 36 30 25 23 23 19 14 14 17 17 15 12 11 9 8 10
19 19 19 19 19 19 19 18 17 16 18 20 22 24 22 21 23 27 29 26 24 26 29 30 32 34 35 33 35 35 32 27 24 21 19 18 16 14 12 10 9 7 9
20 20 20 18 19 20 20 19 18 16 16 17 17 18 19 14 17 20 21 23 27 31 33 32 31 32 34 37 35 34 30 28 28 29 24 21 17 13 11 11 11 12 12
20 21 21 20 20 21 19 19 19 17 16 17 18 18 19 18 19 22 24 25 26 26 28 28 29 32 35 36 35 34 33 29 27 32 30 25 22 17 13 12 14 13 14
22 22 23 22 22 22 21 17 15 16 16 18 18 18 21 21 22 23 26 27 29 31 33 32 32 30 30 31 32 34 32 32 32 30 29 28 24 19 16 15 15 14 14
22 22 24 24 24 23 24 25 14 14 17 17 18 19 19 20 22 25 28 30 30 30 31 35 39 38 37 36 37 36 30 28 29 28 27 27 26 23 21 19 17 16 16
22 23 24 24 25 25 25 23 21 19 18 18 18 18 19 20 25 28 30 32 32 28 31 34 39 39 40 40 39 36 32 30 32 32 33 31 32 29 24 21 20 19 18
22 22 24 25 25 24 25 23 19 19 22 21 20 21 21 24 28 30 30 30 30 30 31 33 32 35 36 36 34 33 31 31 29 31 32 31 27 23 23 22 21 19 18
21 22 25 25 23 23 25 25 21 19 18 17 20 20 19 25 27 29 29 30 32 33 33 34 35 34 33 33 33 31 29 30 32 30 28 27 26 23 21 22 22 20 19
22 23 25 23 24 25 26 26 24 21 17 19 21 21 22 24 26 28 28 29 31 32 34 35 35 36 35 33 30 29 30 31 30 28 28 27 24 22 22 21 22 22 20
22 23 25 23 23 24 22 24 23 23 22 21 22 22 23 26 28 28 28 29 31 32 33 34 34 34 33 33 34 35 34 32 31 30 28 24 22 21 21 20 17 22 18
23 25 26 25 24 25 23 22 21 23 21 18 19 21 23 24 26 27 26 26 27 28 29 29 29 30 30 30 31 33 34 34 31 29 27 24 22 20 18 18 19 20 18
23 26 27 28 29 25 20 20 19 21 20 18 18 20 21 23 24 24 23 25 25 25 25 26 26 27 28 27 25 24 25 26 28 26 24 22 18 15 14 13 13 17 16
25 28 29 28 30 27 17 19 17 18 20 20 20 20 20 21 21 22 23 23 22 22 21 22 23 23 24 24 24 22 21 19 17 14 14 14 13 12 12 14 18 15 13
29 32 30 28 29 31 19 17 16 17 17 18 19 19 18 20 20 21 21 20 20 21 20 21 22 22 22 21 21 22 21 18 16 14 11 9 8 7 6 7 7 4 6
31 32 29 28 28 29 21 19 20 16 15 16 17 19 20 20 21 22 22 19 19 20 20 21 21 21 19 19 20 20 20 19 16 14 13 12 10 14 11 15 13 11 11
Wind_Direction
253 256 257 260 257 252 254 261 261 268 261 248 248 247 228 195 186 186 177 171 163 164 168 169 174 168 150 143 131 111 58 2 312 316 300 303 306 304 307 303 308 315 314
260 266 265 273 273 272 267 254 264 268 271 271 263 267 251 225 194 201 178 176 182 159 164 156 169 166 166 118 86 96 78 130 13 316 325 300 314 303 313 324 327 327 329
267 257 272 300 306 301 302 254 253 267 270 270 270 261 253 249 213 205 204 193 226 197 165 166 161 149 178 162 144 122 101 108 151 4 309 322 324 321 308 316 334 333 336
256 254 284 299 303 285 305 293 271 279 273 250 258 262 253 253 244 232 230 208 237 269 204 174 167 309 203 180 167 165 130 59 92 136 149 48 337 333 343 333 324 325 333
291 309 313 211 195 185 179 181 164 175 154 173 193 251 253 254 256 248 253 259 252 265 279 258 203 246 306 278 204 180 320 339 337 329 325 328 330 328 328 323 323 322 324
5 35 72 68 81 122 123 170 192 205 210 174 185 194 258 257 260 260 260 263 269 266 268 284 296 300 306 302 220 194 201 313 311 312 314 315 319 321 321 322 320 319 319
342 10 25 23 41 84 130 156 182 193 269 207 201 211 261 259 260 261 263 264 268 271 264 277 286 297 305 310 267 204 202 216 307 315 310 301 312 306 313 318 322 321 324
349 344 340 355 6 4 76 144 147 238 269 273 254 261 205 273 262 259 264 267 270 270 274 275 279 290 295 301 305 304 222 228 241 293 302 308 307 304 301 301 303 320 327
340 347 346 344 341 339 338 325 323 285 286 279 286 233 269 270 277 274 273 271 268 271 275 277 279 284 287 289 291 293 286 256 298 284 287 287 308 300 303 309 308 312 312
332 337 340 342 343 343 345 329 312 304 297 291 292 309 285 282 279 288 285 286 275 282 276 275 277 280 281 284 290 291 291 294 299 298 298 300 300 298 286 288 296 298 308
347 350 348 347 344 342 344 346 330 310 300 297 285 287 284 289 275 283 291 291 280 278 277 282 278 279 284 281 282 285 287 292 293 289 291 295 297 296 292 287 286 287 300
352 353 360 3 2 350 342 338 342 332 313 301 292 279 288 288 290 294 285 287 291 284 283 281 286 282 277 286 279 277 282 285 287 290 288 286 285 286 285 279 276 276 288
350 356 348 349 350 351 352 348 341 342 331 323 323 315 303 322 318 320 315 305 293 286 287 286 286 286 282 277 280 283 282 281 282 283 283 282 278 269 272 283 285 289 291
343 341 342 344 334 323 335 350 345 336 333 332 328 323 317 320 319 315 312 307 303 301 296 297 294 288 283 278 277 280 281 286 283 280 282 281 282 277 260 272 279 281 284
329 327 326 329 329 334 339 346 344 340 334 332 336 330 320 318 317 317 314 311 307 301 295 294 292 292 288 281 279 279 282 284 285 284 283 279 275 271 261 268 270 272 272
328 328 321 317 323 331 327 317 345 344 339 338 335 332 330 331 328 322 316 314 310 309 301 292 285 284 282 280 278 281 285 284 285 284 283 280 274 267 265 266 262 262 264
324 323 318 317 318 320 323 329 327 330 331 332 335 332 328 328 323 321 318 314 311 312 306 297 285 281 279 278 278 282 285 286 285 282 281 280 276 270 260 257 255 257 260
319 319 321 314 318 330 326 326 337 336 328 330 331 326 324 322 318 317 320 319 317 313 308 304 303 292 286 285 286 286 287 287 286 284 282 280 277 268 258 250 247 248 248
317 320 325 334 348 352 345 340 340 339 336 338 335 337 338 328 325 324 324 320 316 313 310 306 302 299 296 291 289 288 288 286 285 283 282 280 277 270 259 252 247 242 242
319 327 330 340 344 343 343 347 349 353 352 341 335 333 331 330 326 325 324 322 319 316 314 311 307 299 295 294 294 291 288 286 285 284 283 281 276 268 265 251 242 236 240
328 335 336 341 343 345 348 346 347 348 345 340 335 333 330 326 324 323 322 321 320 320 319 317 313 310 304 297 291 287 286 286 284 283 284 279 272 266 267 258 236 241 239
329 329 330 334 336 341 351 353 351 350 346 345 339 333 332 330 328 324 322 323 323 324 324 326 327 323 318 310 302 294 288 286 285 283 282 280 275 268 260 248 244 237 225
332 326 322 325 329 335 343 348 349 353 355 352 348 342 337 333 330 329 329 328 326 326 328 331 327 327 332 332 328 318 306 298 292 286 283 279 276 260 247 236 231 239 230
329 325 321 327 331 334 339 342 345 346 347 348 347 340 336 333 331 330 328 330 333 328 327 331 337 337 336 334 336 346 345 335 328 319 306 291 277 277 262 259 253 241 230
324 319 319 322 327 322 326 331 334 336 338 341 346 346 342 337 330 328 327 327 327 326 328 324 321 325 334 344 341 339 336 347 353 346 333 321 303 308 296 261 249 218 219
324 320 316 319 325 326 327 321 325 326 327 329 336 339 338 336 331 326 327 324 321 323 323 323 319 320 326 330 338 350 348 335 334 341 323 312 302 281 281 261 260 264 264